[[{"header":{"parameterUnit":"m.s-1","parameterCategory":1,"la1":30.2991,"la2":30.254,"lo1":-89.0895,"lo2":-89.0444,"dy":0.0017,"dx":0.0017,"nx":28,"ny":28,"refTime":"2024-05-17T03:00:00:Z","depth":0,"parameterNumber":2,"parameterNumberName":"U-component_of_WINDS"},"data":[0,0,0,0,0,0,0,0,0,0,0,0,0,0,0,0,0,0,0,0,0,0,0,0,0,0,0,0,0,0,0,0,0,0,0,0,0,0,0,0,0,0,0,0,0,0,0,0,0,0,0,0,0,0,0,0,0,0,1.2977,1.2978,0,1.3038,1.3039,1.304,1.3041,1.304,1.3039,1.3039,1.3102,1.3104,1.3106,0,0,0,0,0,0,0,0,0,0,0,0,0,1.2861,1.2864,1.2977,1.2978,1.2979,1.3038,1.3039,1.304,1.3041,1.304,1.3039,1.3038,1.3101,1.3104,1.3107,0,0,0,0,0,0,0,0,0,0,0,0,0,1.2916,1.2864,1.2977,1.2986,1.2988,1.3038,1.3039,1.304,1.3041,1.304,1.3039,1.3038,1.31,1.3103,1.3107,1.3152,0,0,1.3118,1.3119,0,0,0,0,0,0,0,0,1.2913,1.292,1.2984,1.2986,1.2988,1.3031,1.3021,1.3078,1.3042,1.3021,1.3039,1.3037,1.3079,1.3084,1.3098,1.3155,1.3158,1.3118,1.312,1.3122,1.3123,0,0,0,0,0,0,0,1.2909,1.2918,1.3001,1.2985,1.2987,1.2988,1.2994,1.3032,1.3056,1.3023,1.3023,1.303,1.308,1.3095,1.31,1.3159,1.3118,1.3121,1.3124,1.3125,1.3255,1.3257,0,0,0,0,0,0,1.2904,1.2915,1.2999,1.3003,1.2947,1.2991,1.2998,1.3018,1.3055,1.306,1.3031,1.303,1.3089,1.3096,1.3102,1.3157,1.3122,1.3125,1.3127,1.3254,1.3256,1.3257,0,0,0,0,0,0,1.2901,1.2911,1.2997,1.2959,1.297,1.2994,1.3017,1.302,1.3035,1.3062,1.3066,1.3042,1.3089,1.3097,1.314,1.3159,1.3127,1.313,1.3253,1.3255,1.3257,1.3268,0,0,0,0,0,0,1.2898,1.291,1.2927,1.2959,1.2972,1.3033,1.3018,1.3022,1.3041,1.304,1.3073,1.3078,1.3088,1.3134,1.3143,1.3164,1.3133,1.3251,1.3254,1.3256,1.3266,1.327,1.3274,0,0,0,0,0,1.2894,1.2928,1.2928,1.2939,1.2994,1.3035,1.3042,1.3054,1.3043,1.306,1.3078,1.3076,1.3156,1.3139,1.3149,1.3171,1.325,1.3253,1.3256,1.3264,1.3269,1.3274,0,0,0,0,0,0,1.2898,1.2933,1.2933,1.2979,1.3004,1.3035,1.3057,1.3059,1.3087,1.3085,1.3099,1.3106,1.3148,1.3164,1.3144,1.3216,1.3202,1.3207,1.3205,1.321,1.3213,1.3209,1.3136,0,0,0,0,0,1.2904,1.2934,1.2963,1.3001,1.3013,1.3033,1.3051,1.3058,1.3084,1.3095,1.3115,1.3141,1.3172,1.3191,1.3221,1.3268,1.3276,1.3288,1.3292,1.3295,1.33,1.3326,1.3332,1.3267,1.3267,1.3267,0,0,1.2917,1.294,1.2958,1.3002,1.3022,1.3053,1.3042,1.3075,1.3098,1.31,1.3141,1.3157,1.3187,1.3232,1.3253,1.3246,1.3319,1.3299,1.3301,1.3304,1.3329,1.3336,1.3341,1.3269,1.3269,1.3268,0,0,1.2957,1.2978,1.3011,1.3032,1.3062,1.3075,1.3084,1.3114,1.3125,1.3167,1.3169,1.3197,1.3249,1.327,1.3288,1.3336,1.3336,1.3346,1.3366,1.3391,1.3396,1.3401,1.3418,1.3424,1.335,1.335,1.335,0,1.297,1.3017,1.3029,1.3062,1.3081,1.3085,1.3119,1.3138,1.3177,1.319,1.3182,1.3248,1.3269,1.3319,1.333,1.3345,1.3354,1.3342,1.3395,1.3399,1.3404,1.3421,1.3427,1.3351,1.3351,1.3351,1.3351,0,1.3031,1.3063,1.3087,1.3124,1.3146,1.318,1.3197,1.3218,1.3223,1.3237,1.328,1.3304,1.3339,1.3351,1.3356,1.3402,1.3397,1.3392,1.3377,1.3411,1.3427,1.3433,1.3352,1.3352,1.3352,1.3351,0,0,1.3075,1.3119,1.3127,1.3144,1.3178,1.3204,1.3237,1.3272,1.3289,1.3316,1.3345,1.3389,1.3385,1.3405,1.3413,1.3435,1.3472,1.3427,1.3428,1.3434,1.3524,1.3527,1.3535,1.3472,1.3473,1.3474,1.3521,0,1.3118,1.3178,1.3191,1.3243,1.3273,1.3277,1.3306,1.3331,1.3345,1.3372,1.3388,1.3419,1.3411,1.3423,1.3445,1.3462,1.349,1.3459,1.3499,1.35,1.3491,1.3543,1.3547,1.359,1.3527,1.3529,1.3529,0,1.3177,1.3205,1.3261,1.3291,1.3304,1.3331,1.3363,1.3389,1.3417,1.3426,1.3448,1.3454,1.3489,1.3473,1.3522,1.3501,1.3518,1.3529,1.3531,1.3535,1.3517,1.3548,1.3604,1.361,1.3539,1.3538,1.3538,0,1.3203,1.3255,1.3295,1.331,1.3346,1.3365,1.3381,1.3408,1.3427,1.3456,1.3469,1.3501,1.3518,1.3543,1.3557,1.3544,1.3606,1.3591,1.3614,1.3614,1.3626,1.3625,1.3685,1.3638,1.3637,1.3637,1.3637,0,1.3251,1.3284,1.3308,1.3332,1.337,1.3384,1.3421,1.3437,1.3461,1.3488,1.3494,1.352,1.3537,1.3565,1.3577,1.3616,1.3624,1.3632,1.3634,1.3631,1.363,1.3642,1.364,1.3639,1.3639,1.3638,1.3638,0,1.3286,1.3303,1.3347,1.3378,1.3387,1.3414,1.344,1.3464,1.3479,1.3514,1.3523,1.3545,1.3579,1.3596,1.3638,1.3645,1.3689,1.369,1.368,1.3681,1.3703,1.3701,1.3773,1.3784,1.3729,1.3729,1.373,0,1.3315,1.3341,1.3376,1.3395,1.3411,1.3442,1.3462,1.3477,1.3498,1.3531,1.3551,1.3586,1.3614,1.3667,1.3687,1.372,1.3721,1.3744,1.3726,1.3722,1.3722,1.372,1.3722,1.3747,1.3748,1.3748,1.3749,0,1.3365,1.3372,1.3401,1.3434,1.3458,1.3484,1.3509,1.3525,1.3544,1.3567,1.3602,1.3623,1.3666,1.37,1.3734,1.3751,1.3753,1.3754,1.3762,1.3759,1.3752,1.3756,1.3689,1.3753,1.3752,1.3752,1.3752,1.3752,1.3398,1.3421,1.3449,1.3482,1.3503,1.3527,1.3551,1.3568,1.3597,1.3634,1.3641,1.3677,1.3705,1.375,1.3768,1.3797,1.3792,1.3802,1.3805,1.3807,1.3808,1.3747,1.3804,1.3803,1.3803,1.3803,1.3803,0,1.3448,1.3466,1.3496,1.3532,1.3557,1.3557,1.3586,1.3607,1.364,1.3665,1.3693,1.3733,1.3766,1.3788,1.3822,1.3841,1.3843,1.3849,1.3848,1.3852,1.3811,1.3802,1.3847,1.3847,1.3847,1.3847,1.3847,1.3847,1.3477,1.3516,1.3527,1.3577,1.3595,1.3631,1.3648,1.367,1.369,1.3735,1.3762,1.3777,1.3802,1.3837,1.3867,1.3873,1.3885,1.3892,1.3897,1.3859,1.3854,1.385,1.3841,1.3894,1.3894,1.3936,1.3936,1.3936]},{"header":{"parameterUnit":"m.s-1","parameterCategory":1,"la1":30.2991,"la2":30.254,"lo1":-89.0895,"lo2":-89.0444,"dy":0.0017,"dx":0.0017,"nx":28,"ny":28,"refTime":"2024-05-17T03:00:00:Z","depth":0,"parameterNumber":3,"parameterNumberName":"V-component_of_WINDS"},"data":[0,0,0,0,0,0,0,0,0,0,0,0,0,0,0,0,0,0,0,0,0,0,0,0,0,0,0,0,0,0,0,0,0,0,0,0,0,0,0,0,0,0,0,0,0,0,0,0,0,0,0,0,0,0,0,0,0,0,2.7081,2.7083,0,2.7261,2.7263,2.7265,2.7289,2.7287,2.7286,2.7284,2.7466,2.7472,2.7479,0,0,0,0,0,0,0,0,0,0,0,0,0,2.6756,2.6762,2.7081,2.7083,2.7086,2.7261,2.7263,2.7265,2.7289,2.7287,2.7285,2.7283,2.7464,2.7472,2.7479,0,0,0,0,0,0,0,0,0,0,0,0,0,2.6912,2.6764,2.7081,2.7119,2.7124,2.726,2.7263,2.7266,2.729,2.7287,2.7285,2.7282,2.7462,2.7471,2.748,2.7591,0,0,2.751,2.7514,0,0,0,0,0,0,0,0,2.6903,2.6924,2.7111,2.7116,2.7122,2.725,2.7215,2.7375,2.7291,2.7227,2.7284,2.7281,2.7396,2.7411,2.745,2.7599,2.7607,2.7511,2.7517,2.7521,2.7523,0,0,0,0,0,0,0,2.6893,2.6917,2.7152,2.7113,2.7121,2.7126,2.7145,2.7245,2.7323,2.7232,2.7234,2.7255,2.7399,2.7441,2.7455,2.761,2.751,2.7519,2.7525,2.7529,2.7858,2.786,0,0,0,0,0,0,2.6875,2.6908,2.7146,2.7158,2.7005,2.7134,2.7155,2.7212,2.7322,2.7337,2.7257,2.7256,2.7426,2.7443,2.7461,2.7598,2.7521,2.753,2.7535,2.7855,2.7858,2.7862,0,0,0,0,0,0,2.6868,2.6896,2.7139,2.7033,2.7065,2.7142,2.7205,2.7216,2.7259,2.7342,2.7355,2.7286,2.7424,2.7448,2.7558,2.7605,2.7534,2.7543,2.7851,2.7856,2.786,2.7872,0,0,0,0,0,0,2.6859,2.6894,2.6937,2.7034,2.707,2.7234,2.7208,2.7222,2.7275,2.7275,2.7372,2.7386,2.7424,2.7544,2.7568,2.7617,2.755,2.7847,2.7853,2.7859,2.7868,2.7877,2.7884,0,0,0,0,0,2.6847,2.6933,2.6939,2.6968,2.7126,2.7237,2.7258,2.73,2.7279,2.7323,2.7376,2.7383,2.7595,2.7555,2.7582,2.7635,2.7845,2.7852,2.7858,2.7865,2.7875,2.7884,0,0,0,0,0,0,2.6839,2.6946,2.6954,2.7074,2.7146,2.7241,2.7298,2.731,2.7389,2.7385,2.7434,2.7456,2.7565,2.761,2.7564,2.7747,2.7718,2.773,2.7714,2.7724,2.7732,2.7719,2.7558,0,0,0,0,0,2.6851,2.6933,2.7022,2.7119,2.7155,2.722,2.727,2.7296,2.7373,2.7403,2.7464,2.7537,2.7621,2.7675,2.7756,2.7874,2.7896,2.7923,2.7931,2.7937,2.7948,2.8014,2.8028,2.7883,2.7883,2.7883,0,0,2.6877,2.6946,2.6994,2.7119,2.7178,2.7261,2.7245,2.7334,2.7396,2.7416,2.7526,2.7572,2.7657,2.7772,2.7826,2.7814,2.7992,2.7946,2.795,2.7958,2.8023,2.8036,2.8048,2.7888,2.7887,2.7886,0,0,2.6967,2.7027,2.7115,2.7175,2.7264,2.7307,2.7328,2.742,2.7453,2.7563,2.758,2.7653,2.7796,2.7856,2.7905,2.8016,2.8026,2.8041,2.8083,2.8147,2.8158,2.8169,2.821,2.8223,2.8051,2.8051,2.8051,0,2.6988,2.7115,2.7159,2.7247,2.7302,2.7324,2.7413,2.7468,2.7579,2.7616,2.76,2.7779,2.7838,2.7968,2.7995,2.8033,2.8059,2.8031,2.8153,2.8164,2.8174,2.8214,2.8229,2.8052,2.8052,2.8052,2.8052,0,2.7137,2.7224,2.7284,2.7392,2.7453,2.7541,2.7597,2.7653,2.7674,2.7718,2.7829,2.79,2.7996,2.8028,2.8049,2.8161,2.8151,2.8143,2.8116,2.8189,2.8227,2.8242,2.8054,2.8054,2.8053,2.8053,0,0,2.7229,2.7359,2.7381,2.743,2.753,2.7598,2.7686,2.7781,2.7828,2.7903,2.7979,2.8098,2.8092,2.8148,2.8175,2.8231,2.8316,2.8218,2.822,2.8234,2.8444,2.845,2.8467,2.8322,2.8325,2.8327,2.8438,0,2.7332,2.7493,2.7534,2.767,2.7751,2.7772,2.785,2.7918,2.7961,2.8036,2.8082,2.8167,2.8152,2.8186,2.8242,2.8294,2.8359,2.8286,2.8393,2.8396,2.8373,2.8487,2.8494,2.8595,2.8452,2.8455,2.8457,0,2.7475,2.7554,2.7698,2.7788,2.7823,2.7892,2.7982,2.8053,2.8131,2.8158,2.8219,2.8241,2.8333,2.8299,2.8427,2.8376,2.8422,2.8453,2.8458,2.8472,2.8432,2.8504,2.8628,2.8643,2.848,2.8478,2.8477,0,2.7529,2.7671,2.7777,2.7818,2.7924,2.7972,2.8018,2.8094,2.8148,2.8226,2.8261,2.8348,2.8396,2.8462,2.8507,2.8478,2.8631,2.86,2.8656,2.8655,2.869,2.8687,2.8824,2.8716,2.8715,2.8715,2.8715,0,2.7641,2.7729,2.7803,2.7867,2.7966,2.8011,2.8107,2.8154,2.8221,2.8295,2.8317,2.8385,2.8439,2.8514,2.8549,2.865,2.8671,2.8696,2.8704,2.8695,2.8692,2.8727,2.8722,2.8719,2.8718,2.8718,2.8717,0,2.772,2.7773,2.7889,2.798,2.8004,2.8073,2.8151,2.8214,2.8256,2.8349,2.8373,2.844,2.853,2.858,2.8693,2.8716,2.8829,2.8833,2.8803,2.8808,2.8861,2.8856,2.9027,2.9052,2.8925,2.8926,2.8927,0,2.7789,2.7858,2.7956,2.8007,2.8054,2.8137,2.8192,2.8238,2.8295,2.8389,2.844,2.8532,2.8607,2.875,2.8808,2.8894,2.8901,2.8955,2.8914,2.8903,2.8904,2.89,2.8907,2.8962,2.8964,2.8965,2.8965,0,2.7907,2.7929,2.8009,2.8098,2.8163,2.8235,2.8306,2.8346,2.8404,2.8466,2.8559,2.8618,2.8733,2.8823,2.8914,2.896,2.8973,2.8977,2.8995,2.8987,2.8968,2.8981,2.8824,2.8974,2.8973,2.8972,2.8972,2.8971,2.7984,2.8046,2.8125,2.8213,2.8271,2.8337,2.8401,2.8451,2.853,2.8628,2.8649,2.8747,2.8822,2.8946,2.8994,2.9071,2.9061,2.9086,2.9093,2.9099,2.9102,2.8954,2.9087,2.9087,2.9087,2.9087,2.9086,0,2.8104,2.8156,2.8236,2.8335,2.8404,2.8409,2.8488,2.8545,2.8631,2.87,2.8774,2.888,2.8968,2.9032,2.9121,2.917,2.9178,2.9192,2.919,2.9201,2.9105,2.9082,2.9184,2.9184,2.9184,2.9184,2.9184,2.9184,2.8175,2.828,2.8312,2.8445,2.8496,2.8593,2.8637,2.8698,2.8754,2.8872,2.8945,2.8986,2.9054,2.9148,2.9228,2.9244,2.9277,2.929,2.9308,2.9218,2.9207,2.9197,2.9176,2.9296,2.9297,2.9397,2.9398,2.9399]}]]